Regional Weather Roundup
Issued by NWS Little Rock, AR

Home | Current Version | Previous Version | Graphics & Text | Print | Product List | Glossary On
Versions: 1 2 3 4 5 6 7 8 9 10 11 12 13 14 15 16 17 18 19 20 21 22 23 24 25 26 27 28 29 30 31 32 33 34 35 36 37 38 39 40 41 42 43 44 45 46 47 48 49 50
000
ASUS44 KLZK 301205
RWRLZK

WEATHER ROUNDUP FOR ARKANSAS
NATIONAL WEATHER SERVICE LITTLE ROCK AR
700 AM CDT THU JUL 30 2015

NOTE: "FAIR" INDICATES FEW OR NO CLOUDS BELOW 12,000 FEET WITH NO
SIGNIFICANT WEATHER AND/OR OBSTRUCTIONS TO VISIBILITY.

ARZ001-003-010-029-301300-
NORTHWEST ARKANSAS

CITY           SKY/WX    TMP DP  RH WIND       PRES   REMARKS
FAYETTEVILLE   PTCLDY    73  72  96 VRB3      30.15R
6HR MIN TEMP:  73; 6HR MAX TEMP:  77;

FORT SMITH     PTCLDY    79  74  84 E5        30.08R
6HR MIN TEMP:  79; 6HR MAX TEMP:  83;

HARRISON       CLEAR     73  69  87 E3        30.18R
6HR MIN TEMP:  71; 6HR MAX TEMP:  75;

BENTONVILLE    CLEAR     75  66  73 E5        30.16R
6HR MIN TEMP:  75; 6HR MAX TEMP:  79;

ROGERS         CLEAR     75  68  78 E10       30.16R
6HR MIN TEMP:  74; 6HR MAX TEMP:  78;

SILOAM SPGS    CLEAR     73  66  78 E6        30.14R
6HR MIN TEMP:  73; 6HR MAX TEMP:  77;

HIGHFILL       CLEAR     74  71  91 CALM      30.15R
6HR MIN TEMP:  74; 6HR MAX TEMP:  78;

SPRINGDALE     CLEAR     73  70  88 E5        30.17R
$$

ARZ004-005-016-301300-
NORTH CENTRAL ARKANSAS

CITY           SKY/WX    TMP DP  RH WIND       PRES   REMARKS
BATESVILLE     CLOUDY    75  66  73 N3        30.13R
6HR MIN TEMP:  75; 6HR MAX TEMP:  79;

FLIPPIN        CLEAR     73  64  73 CALM      30.15R
6HR MIN TEMP:  73; 6HR MAX TEMP:  81;

MTN HOME       CLEAR     71  66  84 E3        30.16R
6HR MIN TEMP:  71; 6HR MAX TEMP:  78;

$$

ARZ040-041-301300-
WEST CENTRAL ARKANSAS

CITY           SKY/WX    TMP DP  RH WIND       PRES   REMARKS
MENA           CLEAR     73  72  94 CALM      30.13R
MOUNT IDA      CLEAR     75  73  93 CALM      30.09R FOG
6HR MIN TEMP:  74; 6HR MAX TEMP:  78;

$$

ARZ009-017-025-026-028-301300-
NORTHEAST ARKANSAS

CITY           SKY/WX    TMP DP  RH WIND       PRES   REMARKS
JONESBORO      PTCLDY    75  62  64 NE12G22   30.10R
6HR MIN TEMP:  75; 6HR MAX TEMP:  81;

NEWPORT        MOCLDY    75  70  85 N9        30.12R
6HR MIN TEMP:  75; 6HR MAX TEMP:  79;

WALNUT RIDGE   CLEAR     73  64  73 N6        30.12R
6HR MIN TEMP:  72; 6HR MAX TEMP:  79;

BLYTHEVILLE    CLEAR     73  70  90 N7        30.10R
6HR MIN TEMP:  73; 6HR MAX TEMP:  80;

$$

ARZ022-023-033-042-044-301300-
CENTRAL ARKANSAS

CITY           SKY/WX    TMP DP  RH WIND       PRES   REMARKS
LITTLE ROCK    MOCLDY    81  73  76 NE7       30.09R HX  86
6HR MIN TEMP:  80; 6HR MAX TEMP:  86;

N LITTLE ROCK    N/A     78  73  83 NE13G20   30.09R
6HR MIN TEMP:  78; 6HR MAX TEMP:  83;

JACKSONVILLE   PTCLDY    79  71  75 NE9       30.09R
6HR MIN TEMP:  78; 6HR MAX TEMP:  83;

SEARCY         CLEAR     78  69  73 N10       30.12
6HR MIN TEMP:  78; 6HR MAX TEMP:  83;

HOT SPRINGS    CLEAR     81  74  79 E8        30.08R HX  86
6HR MIN TEMP:  81; 6HR MAX TEMP:  85;

RUSSELLVILLE   CLEAR     77  73  87 CALM      30.10R
6HR MIN TEMP:  76; 6HR MAX TEMP:  84;

CLINTON        LGT RAIN  73  72  94 CALM      30.15R
$$

ARZ036-301300-
EAST ARKANSAS

CITY           SKY/WX    TMP DP  RH WIND       PRES   REMARKS
WEST MEMPHIS   MOCLDY    77  75  93 N7        30.07R
6HR MIN TEMP:  77; 6HR MAX TEMP:  79;

$$

ARZ050-053-066-070-073-301300-
SOUTHWEST ARKANSAS

CITY           SKY/WX    TMP DP  RH WIND       PRES   REMARKS
ARKADELPHIA    FAIR      81  78  90 NE5       30.06R HX  89
6HR MIN TEMP:  78; 6HR MAX TEMP:  83;

CAMDEN         CLEAR     77  73  88 CALM      30.04R FOG
TEXARKANA      CLEAR     79  73  82 CALM      30.05R
6HR MIN TEMP:  76; 6HR MAX TEMP:  83;

EL DORADO      MOCLDY    78  74  87 CALM      30.05R
6HR MIN TEMP:  75; 6HR MAX TEMP:  78;

DE QUEEN       PTCLDY    75  73  93 E6        30.05R FOG
6HR MIN TEMP:  74; 6HR MAX TEMP:  78;

$$

ARZ056-057-069-301300-
SOUTHEAST ARKANSAS

CITY           SKY/WX    TMP DP  RH WIND       PRES   REMARKS
PINE BLUFF     CLEAR     80  77  90 N7        30.06R HX  87
6HR MIN TEMP:  80; 6HR MAX TEMP:  83;

STUTTGART      CLEAR     79  73  83 NE12      30.06S
6HR MIN TEMP:  79; 6HR MAX TEMP:  82;

MONTICELLO     CLEAR     81  77  88 CALM      30.04R HX  88
6HR MIN TEMP:  79; 6HR MAX TEMP:  83;


$$





USA.gov is the U.S. government's official web portal to all federal, state and local government web resources and services.